Location: Unspecified
(33.6682°S, 0.0000°E)
Time: 18:52:28
(UTC+00:00)

Courier 1B Rocket - Visible Passes

Search period start: 16 June 2019 00:00
Search period end: 26 June 2019 00:00
Orbit: 920 x 1202 km, 28.2° (Epoch: 15 June)

Date Brightness Start Highest point End Pass type
(mag) Time Alt. Az. Time Alt. Az. Time Alt. Az.
16 Jun 6.4 17:34:15 10° NW 17:40:58 35° NNE 17:47:56 10° E visible
16 Jun 5.6 19:26:47 10° WNW 19:34:21 56° N 19:34:50 55° NNE visible
16 Jun 7.8 21:20:18 10° W 21:21:11 14° W 21:21:11 14° W visible
17 Jun 5.9 18:25:48 10° WNW 18:33:08 51° NNE 18:37:34 25° ENE visible
17 Jun 6.4 20:19:03 10° W 20:23:56 40° WNW 20:23:56 40° WNW visible
18 Jun 6.2 17:25:01 10° NW 17:31:58 43° NNE 17:39:16 10° E visible
18 Jun 5.6 19:17:54 10° WNW 19:25:27 59° N 19:26:40 53° NE visible
18 Jun 7.6 21:11:31 10° W 21:13:02 17° W 21:13:02 17° W visible
19 Jun 5.8 18:16:53 10° WNW 18:24:13 56° N 18:29:26 21° ENE visible
19 Jun 6.2 20:10:16 10° W 20:15:48 44° NW 20:15:48 44° NW visible
20 Jun 6.0 17:16:00 10° WNW 17:23:02 50° NNE 17:30:29 10° E visible
20 Jun 5.7 19:09:06 10° W 19:16:34 58° N 19:18:35 46° NE visible
20 Jun 7.4 21:02:50 10° W 21:04:58 19° WNW 21:04:58 19° WNW visible
21 Jun 5.8 18:08:03 10° WNW 18:15:20 58° N 18:21:25 17° ENE visible
21 Jun 6.1 20:01:32 10° W 20:07:48 46° NW 20:07:48 46° NW visible
22 Jun 5.8 19:00:22 10° W 19:07:40 54° N 19:10:41 36° NE visible
22 Jun 7.3 20:54:17 10° W 20:57:03 21° WNW 20:57:03 21° WNW visible
23 Jun 5.8 17:59:18 10° W 18:06:28 57° N 18:13:37 12° ENE visible
23 Jun 6.2 19:52:54 10° W 19:59:55 40° NNW 20:00:00 40° NNW visible
24 Jun 6.1 18:51:42 10° W 18:58:46 47° NNW 19:03:01 25° NE visible
24 Jun 7.3 20:45:59 10° WNW 20:49:25 21° NW 20:49:25 21° NW visible
25 Jun 6.0 17:50:38 10° W 17:57:36 53° N 18:05:01 10° ENE visible
25 Jun 6.6 19:44:26 10° W 19:50:55 32° NNW 19:52:32 29° N visible
